Airfield :
LOGIN :

Register | Disclaimer

   EN    FR    IT 

 










Legend :    VFR   Marginal VFR   IFR   Intensive IFR   Very Intensive IFR
Visi :
Ceiling :
>= 8 km
>= 3000ft
5 to 8 km
1000 to 3000 ft
1500m to 5 km
500 to 1000 ft
800 to 1500m
200 to 500 ft
< 800m
< 200 ft
Symbols :   Thunderstorms  Fog  Heavy snow  Heavy precipitations  Wind > 20 kt
SIGMETs :     Misc.  Thunderstorms  Icing  Turbulence  Mountain Waves  Volcanic Ashes






- Airport Elevation : 138 ft
- IATA code : RLG


ETNL - Rostock Laage

CURRENT METAR :
  • 290520Z 20008KT 9999 VCSH FEW050 BKN080 17/13 Q1007 BLU BLU TEMPO GRN

EXPIRED METARs :
  • 290420Z 20006KT 9999 SCT110 16/13 Q1007 BLU+BLU TEMPO GRN
  • 290320Z 19003KT 9999 SCT100 15/13 Q1007 BLU+

TAF TAF ETNL
Valid from the 29 at 05:00 until the 29 at 14:00 UTC


290410Z 2905/2914 22010KT 9999 NSW FEW040 BKN100
TEMPO 2905/2909 24010G25KT 4000 SHRA SCT015 BKN030TCU
BECMG 2909/2911 24012G25KT 9999 NSW SCT040 BY ETGL



MET'MAP, your aeronautical weather chart ! - Copyright ORBIFLY December 2007 - Disclaimer

ORBIFLY MET'MAP TEAM :

Programming & Development : Alexandra Zaïnal
Concept & original design : Baudouin d'Aumeries
Assistance for programming : Marc-Olivier Méhu
Technical & hardware support : Manuel Goepfert

Contact : metmap@orbifly.com




SOURCES & CREDITS :

   NOAA